Albany, NY

5:10 PM EST on November 20, 2019 (GMT -0500)
Albany International

Weather History for KALB - September, 2019

Change the Weather History Date:

Monday, September 9, 2019

  Actual Average Record
Temperature  
Mean Temperature 61 °F 65 °F  
Max Temperature 73 °F 75 °F 94 °F (1959)
Min Temperature 49 °F 54 °F 36 °F (1938)
Degree Days  
Heating Degree Days 4 3  
Month to date heating degree days 16 18  
Since 1 July heating degree days 18 41  
Cooling Degree Days 0 2  
Month to date cooling degree days 11 27  
Year to date cooling degree days 734 570  
Growing Degree Days 10 (Base 50)    
Moisture  
Dew Point 51 °F    
Average Humidity 68    
Maximum Humidity 89    
Minimum Humidity 47    
Precipitation  
Precipitation 0.00 in 0.11 in 2.35 in (1924)
Month to date precipitation 1.77 0.91  
Year to date precipitation 30.75 27.06  
Sea Level Pressure  
Sea Level Pressure 30.28 in    
Wind  
Wind Speed 3 mph (North)    
Max Wind Speed 9 mph    
Max Gust Speed 15 mph    
Visibility 10 miles    
Events Fog    
T = Trace of Precipitation, MM = Missing Value Source: NWS Daily Summary

Daily Weather History Graph

Daily Weather History Graph

Search for Another Location

Airport or City:

Astronomy

Sep. 09, 2019 Rise Set
Actual Time 6:28 AM EDT 7:16 PM EDT
Civil Twilight 5:59 AM EDT 7:44 PM EDT
Nautical Twilight 5:25 AM EDT 8:18 PM EDT
Astronomical Twilight 4:50 AM EDT 8:53 PM EDT
Moon 5:16 PM EDT (9/9) 1:50 AM EDT (9/9)
Length of Visible Light 13h 45m
Length of Day
12h 47m
Waxing Gibbous, 83% of the Moon is Illuminated
Sep 9
Waxing Gibbous
Sep 14
Full
Sep 21
Last Quarter
Sep 28
New
Oct 5
First Quarter

Hourly Weather History & Observations

Time (EDT) Temp. Dew Point Humidity Pressure Visibility Wind Dir Wind Speed Gust Speed Precip Events Conditions
12:51 AM 55.9 °F 52.0 °F 87% 30.21 in 10.0 mi Calm Calm - N/A   Mostly Cloudy
1:51 AM 55.0 °F 51.1 °F 86% 30.22 in 10.0 mi Calm Calm - N/A   Scattered Clouds
2:51 AM 54.0 °F 50.0 °F 86% 30.22 in 10.0 mi Calm Calm - N/A   Partly Cloudy
3:51 AM 52.0 °F 48.0 °F 86% 30.23 in 10.0 mi Calm Calm - N/A Fog Patches of Fog
4:51 AM 51.1 °F 46.9 °F 86% 30.24 in 10.0 mi Calm Calm - N/A   Partly Cloudy
5:51 AM 52.0 °F 48.0 °F 86% 30.25 in 10.0 mi Calm Calm - N/A   Partly Cloudy
6:51 AM 51.1 °F 48.0 °F 89% 30.28 in 10.0 mi North 4.6 mph - N/A Fog Partly Cloudy
7:51 AM 55.0 °F 50.0 °F 83% 30.29 in 10.0 mi North 6.9 mph - N/A   Partly Cloudy
8:51 AM 57.9 °F 51.1 °F 78% 30.31 in 10.0 mi NNW 5.8 mph - N/A   Scattered Clouds
9:51 AM 59.0 °F 51.1 °F 75% 30.33 in 10.0 mi NNW 8.1 mph - N/A   Mostly Cloudy
10:51 AM 62.1 °F 52.0 °F 70% 30.33 in 10.0 mi North 6.9 mph - N/A   Mostly Cloudy
11:51 AM 66.0 °F 53.1 °F 63% 30.31 in 10.0 mi NNW 3.5 mph - N/A   Scattered Clouds
12:51 PM 69.1 °F 52.0 °F 54% 30.30 in 10.0 mi Variable 5.8 mph - N/A   Mostly Cloudy
1:51 PM 70.0 °F 48.9 °F 47% 30.28 in 10.0 mi SE 4.6 mph - N/A   Scattered Clouds
2:51 PM 72.0 °F 50.0 °F 46% 30.27 in 10.0 mi Calm Calm - N/A   Scattered Clouds
3:51 PM 72.0 °F 50.0 °F 46% 30.27 in 10.0 mi Calm Calm - N/A   Scattered Clouds
4:51 PM 71.1 °F 50.0 °F 47% 30.26 in 10.0 mi East 3.5 mph - N/A   Scattered Clouds
5:51 PM 72.0 °F 50.0 °F 46% 30.26 in 10.0 mi Calm Calm - N/A   Partly Cloudy
6:51 PM 70.0 °F 50.0 °F 49% 30.27 in 10.0 mi Calm Calm - N/A   Partly Cloudy
7:51 PM 64.0 °F 54.0 °F 70% 30.29 in 10.0 mi SSW 3.5 mph - N/A   Mostly Cloudy
9:51 PM 62.1 °F 57.0 °F 84% 30.30 in 10.0 mi NNW 3.5 mph - N/A   Scattered Clouds
10:51 PM 61.0 °F 55.0 °F 81% 30.30 in 10.0 mi Calm Calm - N/A   Scattered Clouds
11:51 PM 60.1 °F 55.0 °F 83% 30.31 in 10.0 mi North 3.5 mph - N/A   Mostly Cloudy